Regional Weather Roundup
Issued by NWS

Home | Current Version | Previous Version | Text Only | Print | Product List | Glossary Off
Versions: 1 2 3 4 5 6 7 8 9 10 11 12 13 14 15 16 17 18 19 20 21 22 23 24 25 26 27

000
ASUS43 KDMX 221307
RWRIA

WEATHER ROUNDUP FOR IOWA
NATIONAL WEATHER SERVICE DES MOINES IA
800 AM CDT TUE APR 22 2014

NOTE: "FAIR" INDICATES FEW OR NO CLOUDS BELOW 12,000 FEET WITH NO
SIGNIFICANT WEATHER AND/OR OBSTRUCTIONS TO VISIBILITY.

* - THESE STATIONS ARE NOT NWS STATIONS...THUS NOT UNDER NWS
QUALITY CONTROL.  THEY ALSO DO NOT REPORT WEATHER SUCH
AS PRECIPITATION OR FOG.

IAZ001>003-012>014-020>022-031>034-043>046-221400-
   NORTHWEST IOWA

CITY           SKY/WX    TMP DP  RH WIND       PRES   REMARKS
CARROLL *      SUNNY     45  34  65 N5        30.16S
CHEROKEE *     SUNNY     37  30  75 CALM      30.17R
DENISON *      SUNNY     39  36  87 CALM      30.16R
LE MARS *      SUNNY     36  32  87 CALM      30.17S HAZE
ORANGE CITY *  SUNNY     43  32  65 CALM      30.16S
SHELDON *      SUNNY     37  28  70 CALM      30.15F
SIOUX CITY     SUNNY     43  34  70 NW3       30.17R
SPENCER        SUNNY     37  31  78 CALM      30.16S
STORM LAKE *   SUNNY     43  32  65 N5        30.17R
$$

IAZ055>058-069>071-079>083-090>094-221400-
   SOUTHWEST IOWA

CITY           SKY/WX    TMP DP  RH WIND       PRES   REMARKS
ATLANTIC *     SUNNY     43  34  70 CALM      30.17R
AUDUBON *      SUNNY     43  34  70 CALM      30.16S
CLARINDA *     SUNNY     43  36  75 N6        30.17F
COUNCIL BLFS * SUNNY     46  34  61 NE6       30.15R
CRESTON *      SUNNY     45  32  61 N9        30.15S
HARLAN  *      SUNNY     41  34  75 CALM      30.20R
LAMONI         SUNNY     45  32  60 N12       30.13R
RED OAK *      SUNNY     43  36  75 NE3       30.16F
SHENANDOAH *   SUNNY     43  36  75 CALM      30.18R
$$

IAZ047>049-059>061-072>074-084-221400-
   CENTRAL IOWA

CITY           SKY/WX    TMP DP  RH WIND       PRES   REMARKS
AMES           SUNNY     44  32  62 N10       30.14R
ANKENY *       SUNNY     45  32  61 N8        30.14S
CHARITON *     SUNNY     45  34  65 N8        30.14R
DES MOINES     MOSUNNY   48  31  51 N9        30.14R
GRINNELL*      SUNNY     41  34  75 NW7       30.12S
KNOXVILLE *    SUNNY     45  32  61 N8        30.13R
MARSHALLTOWN   SUNNY     41  35  79 NW7       30.12R
NEWTON *       SUNNY     43  34  70 N8        30.14R
PELLA *        SUNNY     45  36  70 N8        30.14R
PERRY *          N/A     43  32  65 NW6       30.16R
$$

IAZ004>006-015-016-023>025-035-036-221400-
   NORTH CENTRAL IOWA

CITY           SKY/WX    TMP DP  RH WIND       PRES   REMARKS
ALGONA *       SUNNY     41  34  75 N7        30.15R
CLARION *      SUNNY     39  34  81 NW8       30.14R WCI  34
ESTHERVILLE    SUNNY     39  33  79 NW8       30.15R WCI  33
FORT DODGE *   SUNNY     41  32  70 CALM      30.16R
MASON CITY     SUNNY     41  34  76 NW10      30.13S
FOREST CITY *  SUNNY     43  34  70 NW9       30.13R
IOWA FALLS *     N/A     41  34  75 NW8       30.14R
$$

IAZ007>011-017>019-026>030-037>042-050>054-066-221400-
   NORTHEAST IOWA

CITY           SKY/WX    TMP DP  RH WIND       PRES   REMARKS
CEDAR RAPIDS   SUNNY     42  33  70 NW13      30.09R
CHARLES CITY * SUNNY     41  34  75 NW9       30.12R
CLINTON *      SUNNY     45  30  57 N15G22    30.06F
DECORAH *      SUNNY     39  30  70 NW8       30.07S WCI  34
DUBUQUE        SUNNY     43  30  60 N21G29    30.04R
MONTICELLO *   SUNNY     45  32  61 N14       30.07R
OELWEIN *      SUNNY    N/A N/A N/A NW12      30.11R
WATERLOO       SUNNY     42  34  73 NW8       30.11R
$$

IAZ064-065-067-068-078-221400-
   EAST CENTRAL IOWA

CITY           SKY/WX    TMP DP  RH WIND       PRES   REMARKS
DAVENPORT      SUNNY     45  36  70 N14       30.05R
IOWA CITY      SUNNY     46  31  55 NW15      30.11R
MT. PLEASANT * SUNNY     45  32  60 N16       30.08R
MUSCATINE *    SUNNY     46  34  61 N10       30.09R
QUAD CITIES    SUNNY     47  33  58 N10G18    30.05R
$$

IAZ062-063-075>077-085>089-095>099-221400-
   SOUTHEAST IOWA

CITY           SKY/WX    TMP DP  RH WIND       PRES   REMARKS
BURLINGTON     SUNNY     46  35  65 N14       30.06R
FAIRFIELD *    SUNNY     45  32  61 N16       30.11R
FORT MADISON * SUNNY     46  37  71 N13G20    30.08R
KEOKUK *       SUNNY     46  36  66 N9G18     30.07R
OSKALOOSA *      N/A     45  34  65 N9        30.12R
CENTERVILLE *  SUNNY     45  32  61 N13G21    30.13R
OTTUMWA        SUNNY     45  33  63 N14       30.12R
WASHINGTON *   SUNNY     45  32  61 N15       30.10R
$$

ABBREVIATIONS USED IN REMARKS
   TC - TEMPERATURES IN CELSIUS
  WCI - WIND CHILL INDEX
   HX - HEAT INDEX
  VSB - VISIBILITY
$$




USA.gov is the U.S. government's official web portal to all federal, state and local government web resources and services.